TimeCDT,TemperatureF,Dew PointF,Humidity,Sea Level PressureIn,VisibilityMPH,Wind Direction,Wind SpeedMPH,Gust SpeedMPH,PrecipitationIn,Events,Conditions,WindDirDegrees,DateUTC
12:10 AM,64.4,33.8,32,29.67,10.0,SE,11.5,-,N/A,,Clear,140,2012-10-04 05:10:00
12:30 AM,64.4,35.6,34,29.67,10.0,SSE,13.8,20.7,N/A,,Clear,150,2012-10-04 05:30:00
12:50 AM,57.2,37.4,48,29.67,10.0,West,12.7,17.3,N/A,,Clear,280,2012-10-04 05:50:00
1:10 AM,53.6,42.8,67,29.67,10.0,WNW,17.3,23.0,N/A,,Clear,290,2012-10-04 06:10:00
1:30 AM,50.0,41.0,71,29.68,10.0,WNW,24.2,28.8,N/A,,Clear,300,2012-10-04 06:30:00
1:50 AM,48.2,41.0,76,29.69,10.0,WNW,28.8,34.5,N/A,,Clear,300,2012-10-04 06:50:00
2:10 AM,46.4,39.2,76,29.71,10.0,WNW,33.4,38.0,N/A,,Clear,300,2012-10-04 07:10:00
2:30 AM,46.4,39.2,76,29.73,10.0,WNW,34.5,42.6,N/A,,Scattered Clouds,300,2012-10-04 07:30:00
2:50 AM,46.4,39.2,76,29.75,10.0,WNW,27.6,42.6,N/A,,Mostly Cloudy,300,2012-10-04 07:50:00
3:10 AM,46.4,39.2,76,29.76,10.0,WNW,33.4,43.7,N/A,,Overcast,300,2012-10-04 08:10:00
3:30 AM,44.6,39.2,81,29.79,10.0,WNW,35.7,42.6,N/A,,Overcast,290,2012-10-04 08:30:00
3:50 AM,44.6,39.2,81,29.80,10.0,WNW,33.4,41.4,N/A,,Overcast,300,2012-10-04 08:50:00
4:10 AM,42.8,39.2,87,29.80,4.0,WNW,35.7,44.9,N/A,,Overcast,300,2012-10-04 09:10:00
4:30 AM,42.8,39.2,87,29.82,4.0,WNW,29.9,46.0,N/A,Rain,Light Rain,290,2012-10-04 09:30:00
4:50 AM,41.0,37.4,87,29.84,4.0,WNW,33.4,41.4,N/A,,Light Drizzle,290,2012-10-04 09:50:00
5:10 AM,39.2,35.6,87,29.86,5.0,WNW,33.4,43.7,N/A,,Overcast,290,2012-10-04 10:10:00
5:30 AM,37.4,35.6,93,29.87,10.0,WNW,32.2,48.3,N/A,,Overcast,300,2012-10-04 10:30:00
5:50 AM,37.4,33.8,87,29.88,10.0,WNW,32.2,42.6,N/A,,Overcast,300,2012-10-04 10:50:00
6:10 AM,37.4,33.8,87,29.89,10.0,NW,35.7,42.6,N/A,,Overcast,310,2012-10-04 11:10:00
6:30 AM,37.4,33.8,87,29.90,10.0,NW,31.1,42.6,N/A,,Overcast,310,2012-10-04 11:30:00
6:50 AM,37.4,33.8,87,29.92,10.0,NW,27.6,40.3,N/A,,Overcast,320,2012-10-04 11:50:00
7:10 AM,37.4,33.8,87,29.93,10.0,NW,31.1,39.1,N/A,,Overcast,310,2012-10-04 12:10:00
7:35 AM,37.4,33.8,87,29.94,7.0,WNW,26.5,36.8,N/A,,Overcast,300,2012-10-04 12:35:00
7:50 AM,35.6,32.0,87,-9999,1.5,WNW,24.2,36.8,N/A,,Overcast,300,2012-10-04 12:50:00
8:09 AM,35.6,33.8,93,29.97,1.0,WNW,26.5,35.7,N/A,,Unknown,300,2012-10-04 13:09:00
8:30 AM,35.6,33.8,93,29.98,2.5,WNW,28.8,34.5,N/A,,Overcast,300,2012-10-04 13:30:00
8:50 AM,37.4,33.8,87,29.99,7.0,WNW,23.0,33.4,N/A,,Overcast,300,2012-10-04 13:50:00
9:10 AM,37.4,33.8,87,30.00,10.0,WNW,33.4,41.4,N/A,,Overcast,300,2012-10-04 14:10:00
9:30 AM,37.4,33.8,87,30.01,10.0,NW,31.1,39.1,N/A,,Overcast,310,2012-10-04 14:30:00
9:50 AM,37.4,33.8,87,30.02,10.0,NW,31.1,39.1,N/A,,Overcast,310,2012-10-04 14:50:00
10:10 AM,39.2,33.8,81,30.04,10.0,WNW,27.6,40.3,N/A,,Overcast,300,2012-10-04 15:10:00
10:30 AM,39.2,33.8,81,30.04,7.0,NW,31.1,41.4,N/A,,Overcast,310,2012-10-04 15:30:00
10:50 AM,39.2,33.8,81,30.06,7.0,NW,27.6,36.8,N/A,,Overcast,310,2012-10-04 15:50:00
11:30 AM,41.0,33.8,76,30.07,10.0,NW,31.1,40.3,N/A,,Overcast,310,2012-10-04 16:30:00
11:50 AM,41.0,33.8,76,30.07,10.0,NW,29.9,39.1,N/A,,Overcast,310,2012-10-04 16:50:00
12:10 PM,42.8,32.0,66,30.08,10.0,NW,31.1,39.1,N/A,,Overcast,310,2012-10-04 17:10:00
12:30 PM,42.8,32.0,66,30.09,10.0,NW,28.8,40.3,N/A,,Overcast,310,2012-10-04 17:30:00
12:50 PM,42.8,32.0,66,30.09,10.0,WNW,29.9,36.8,N/A,,Overcast,300,2012-10-04 17:50:00
1:10 PM,42.8,32.0,66,30.10,10.0,WNW,28.8,38.0,N/A,,Overcast,300,2012-10-04 18:10:00
1:30 PM,44.6,30.2,57,30.10,10.0,WNW,29.9,35.7,N/A,,Overcast,300,2012-10-04 18:30:00
1:50 PM,42.8,30.2,61,30.12,10.0,NW,29.9,34.5,N/A,,Overcast,310,2012-10-04 18:50:00
2:10 PM,42.8,30.2,61,30.11,10.0,NW,29.9,36.8,N/A,,Overcast,310,2012-10-04 19:10:00
2:30 PM,44.6,32.0,61,30.12,10.0,NW,29.9,36.8,N/A,,Overcast,310,2012-10-04 19:30:00
2:50 PM,44.6,30.2,57,30.12,10.0,NW,31.1,39.1,N/A,,Overcast,310,2012-10-04 19:50:00
3:10 PM,44.6,30.2,57,30.13,10.0,NW,26.5,38.0,N/A,,Overcast,310,2012-10-04 20:10:00
3:30 PM,44.6,30.2,57,30.13,10.0,NW,28.8,34.5,N/A,,Overcast,310,2012-10-04 20:30:00
3:50 PM,44.6,32.0,61,30.13,10.0,NW,27.6,39.1,N/A,,Overcast,320,2012-10-04 20:50:00
4:10 PM,44.6,30.2,57,30.13,10.0,NW,23.0,38.0,N/A,,Overcast,310,2012-10-04 21:10:00
4:30 PM,44.6,30.2,57,30.14,10.0,NW,25.3,35.7,N/A,,Overcast,310,2012-10-04 21:30:00
4:50 PM,44.6,30.2,57,30.14,10.0,NW,25.3,32.2,N/A,,Overcast,310,2012-10-04 21:50:00
5:10 PM,44.6,30.2,57,30.14,10.0,NW,23.0,32.2,N/A,,Overcast,320,2012-10-04 22:10:00
5:30 PM,44.6,32.0,61,30.15,10.0,WNW,24.2,28.8,N/A,,Overcast,300,2012-10-04 22:30:00
5:50 PM,44.6,30.2,57,30.15,10.0,NW,28.8,-,N/A,,Overcast,320,2012-10-04 22:50:00
6:10 PM,44.6,30.2,57,30.16,10.0,WNW,18.4,31.1,N/A,,Overcast,300,2012-10-04 23:10:00
6:30 PM,44.6,33.8,66,30.16,10.0,WNW,25.3,31.1,N/A,,Overcast,300,2012-10-04 23:30:00
6:50 PM,41.0,35.6,81,30.17,5.0,NW,20.7,35.7,N/A,,Haze,310,2012-10-04 23:50:00
7:10 PM,39.2,35.6,87,30.17,10.0,WNW,13.8,-,N/A,,Mostly Cloudy,300,2012-10-05 00:10:00
7:30 PM,41.0,33.8,76,30.17,10.0,WNW,19.6,23.0,N/A,,Overcast,300,2012-10-05 00:30:00
8:10 PM,41.0,33.8,76,30.18,10.0,WNW,19.6,27.6,N/A,,Mostly Cloudy,300,2012-10-05 01:10:00
8:30 PM,39.2,32.0,75,30.18,10.0,WNW,19.6,25.3,N/A,,Overcast,300,2012-10-05 01:30:00
8:50 PM,39.2,33.8,81,30.19,10.0,NW,16.1,-,N/A,,Mostly Cloudy,310,2012-10-05 01:50:00
9:10 PM,39.2,33.8,81,30.19,10.0,NW,18.4,21.9,N/A,,Overcast,320,2012-10-05 02:10:00
9:30 PM,39.2,33.8,81,30.19,10.0,WNW,16.1,-,N/A,,Mostly Cloudy,300,2012-10-05 02:30:00
9:50 PM,39.2,33.8,81,30.20,10.0,WNW,16.1,19.6,N/A,,Mostly Cloudy,300,2012-10-05 02:50:00
10:10 PM,39.2,32.0,75,30.19,10.0,NW,15.0,20.7,N/A,,Overcast,310,2012-10-05 03:10:00
10:30 PM,39.2,33.8,81,30.20,10.0,WNW,13.8,-,N/A,,Overcast,300,2012-10-05 03:30:00
10:50 PM,41.0,33.8,76,30.20,10.0,WNW,16.1,20.7,N/A,,Overcast,300,2012-10-05 03:50:00
11:10 PM,41.0,33.8,76,30.20,10.0,WNW,16.1,-,N/A,,Overcast,300,2012-10-05 04:10:00
11:30 PM,41.0,30.2,65,30.20,10.0,WNW,17.3,23.0,N/A,,Overcast,300,2012-10-05 04:30:00
11:50 PM,41.0,30.2,65,30.19,10.0,WNW,16.1,28.8,N/A,,Overcast,300,2012-10-05 04:50:00